Regional Weather Roundup
Issued by NWS Goodland, KS

Home | Current Version | Previous Version | Text Only | Print | Product List | Glossary On
Versions: 1 2 3 4 5 6 7 8 9 10 11 12 13 14 15 16 17 18 19 20 21 22 23 24 25 26 27 28 29 30 31 32 33 34 35 36 37 38 39 40 41 42 43 44 45 46 47 48 49 50
000
ASUS43 KGLD 221708
RWRGLD

GOODLAND FORECAST AREA HOURLY WEATHER ROUNDUP
NATIONAL WEATHER SERVICE GOODLAND KS
1000 AM MST SAT NOV 22 2014

...OFFICIAL OBSERVATIONS...

CITY           SKY/WX    TMP DP  RH WIND       PRES   REMARKS
GOODLAND KS    SUNNY     61  22  22 SW20G26   29.76F
HILL CITY KS   SUNNY     48  31  51 VRB3      29.79F
IMPERIAL NEB   SUNNY     61  19  19 S24G31    29.69F
MCCOOK NEB     SUNNY     47  26  44 SW5       29.74F
AKRON CO       PTSUNNY   55  14  19 SW18      29.73F
BURLINGTON CO  SUNNY     59  15  18 SW21      29.76F
LIMON CO       SUNNY     56  15  20 CALM      29.76F
$$

...UNOFFICIAL OBSERVATIONS...

CITY           SKY/WX    TMP DP  RH WIND       PRES   REMARKS
COLBY KS       SUNNY     63  30  29 S16       29.76F
GOVE KS          N/A     52  32  46 MISG        N/A
NORTON KS      SUNNY     48  28  46 SE6       29.76S
SHARON SPRINGS   N/A     57  31  38 SW14        N/A
TRIBUNE KS     SUNNY     59  36  41 SW12      29.80F
TRENTON NEB      N/A     54  32  43 SW9         N/A
YUMA CO          N/A     59  16  18 SW12G20     N/A
$$



USA.gov is the U.S. government's official web portal to all federal, state and local government web resources and services.